Location: Faicchio
(41.2833°N, 14.4833°E)
Time: 06:28:54
(UTC+00:00)

Cosmos 1486 Rocket - Pass Details

Date: 15 June 2025
Orbit: 754 x 780 km, 74.1° (Epoch: 16 July)

Event Time Altitude Azimuth Distance (km) Brightness Sun altitude
Exits shadow 01:45:07 23° 204° (SSW) 1,562 5.0 -15.2°
Maximum altitude 01:48:23 80° 289° (WNW) 775 3.9 -14.8°
Drops below altitude 10° 01:53:37 10° 17° (NNE) 2,305 7.6 -14.2°
Sets 01:56:01 0° 19° (NNE) 3,239 8.6 -13.9°
